Regional Weather Roundup
Issued by NWS Upton, NY

Current Version | Previous Version | Text Only | Print | Product List | Glossary On
Versions: 1 2 3 4 5 6 7 8 9 10 11 12 13 14 15 16 17 18 19 20 21 22 23 24 25 26 27 28 29 30 31 32 33 34 35 36 37 38 39 40 41 42 43 44 45 46 47 48 49 50
000
ASUS41 KOKX 172205
RWROKX

REGIONAL WEATHER ROUNDUP
NATIONAL WEATHER SERVICE NEW YORK NY
600 PM EDT WED SEP 17 2014

NOTE: "FAIR" INDICATES FEW OR NO CLOUDS BELOW 12,000 FEET WITH NO
SIGNIFICANT WEATHER AND/OR OBSTRUCTIONS TO VISIBILITY.

NYZ071-072-176-178-NJZ106-104-172300-
NEW YORK CITY METRO AREA


CITY           SKY/WX    TMP DP  RH WIND       PRES   REMARKS
CENTRAL PARK   SUNNY     69  43  38 VRB5      29.99R
LAGUARDIA APRT MOSUNNY   72  43  35 NW9       29.96R
KENNEDY INTL   MOSUNNY   72  40  31 W10       29.97R
NEWARK/LIBERTY MOSUNNY   72  42  34 W6        29.96S
BRNX BOT. GARD   N/A     72  41  33 NW3       29.97F
TETERBORO      SUNNY     72  40  31 NW8       29.95R
$$

NYZ177-179-078>081-172300-
LONG ISLAND NEW YORK

CITY           SKY/WX    TMP DP  RH WIND       PRES   REMARKS
FARMINGDALE    SUNNY     68  47  46 S8        29.98R
ISLIP          MOSUNNY   67  48  50 SW8       29.97R
SHIRLEY        CLEAR     68  47  46 SW7       29.98R
WESTHAMPTON    CLEAR     68  46  45 MISG      29.99R
MONTAUK POINT    N/A     67  49  52 SW5       29.98R
$$

NYZ052-065-067-172300-
HUDSON VALLEY

CITY           SKY/WX    TMP DP  RH WIND       PRES   REMARKS
WHITE PLAINS   MOSUNNY   67  42  40 W3        29.97R
NEWBURGH       NOT AVBL
MONTGOMERY     SUNNY     68  45  43 W3        29.97R
POUGHKEEPSIE   MOSUNNY   70  42  36 W8        29.96R
ALBANY         MOSUNNY   66  46  48 W5        29.97S
$$

NJZ001-105-106-008-010-013-015-019>022-104-172300-
NEW JERSEY

CITY           SKY/WX    TMP DP  RH WIND       PRES   REMARKS
NEWARK/LIBERTY MOSUNNY   72  42  34 W6        29.96S
TETERBORO      SUNNY     72  40  31 NW8       29.95R
CALDWELL       SUNNY     70  40  33 NW7       29.97S
MORRISTOWN     MOSUNNY   72  43  35 W7        29.98R
SOMERVILLE     SUNNY     71  45  39 VRB5      29.96R
LINDEN         FAIR      75  46  35 W9        29.98S
SUSSEX         PTSUNNY   68  49  50 CALM      29.97S
ANDOVER          N/A     67  45  45 SW6       29.98S
TRENTON        MOSUNNY   71  44  37 NW6       29.96S
MILLVILLE      CLOUDY    71  49  45 SW3       29.97S
ATLANTIC CITY  PTSUNNY   68  53  58 S8        29.98S
WRIGHTSTOWN    PTSUNNY   71  46  41 SE1       29.95S
TOMS RIVER     SUNNY     66  52  59 SE3       29.99R
BELMAR         MOSUNNY   66  48  52 SE6       29.98S
$$

PAZ047>061-062-071-172300-
EASTERN PENNSYLVANIA

CITY           SKY/WX    TMP DP  RH WIND       PRES   REMARKS
PHILADELPHIA   MOSUNNY   73  46  38 SW10      29.97S
ALLENTOWN      SUNNY     70  44  39 W7        29.97S
SCRANTON       PTSUNNY   66  41  40 SW6       29.98S
$$

CTZ002-004>006-009-010-012-RIZ004-006-007-MAZ004-011-015-172300-
SOUTHERN NEW ENGLAND
 IN CT

CITY           SKY/WX    TMP DP  RH WIND       PRES   REMARKS
BRADLEY INTL   PTCLDY    69  44  40 NW8       29.96R
HARTFORD       PTCLDY    69  41  36 VRB7      29.96R
DANBURY        SUNNY     66  42  41 NW6       29.99R
WTRBRY/OXFORD  MOSUNNY   64  45  48 NW3       29.99S
BRIDGEPORT     SUNNY     70  46  42 SW12      29.97R
MERIDEN        PTCLDY    69  42  37 W6        29.97R
NEW HAVEN      PTCLDY    69  47  45 SW5       29.97S
CHESTER        FAIR      64  48  55 S7        29.98R
GROTON         CLEAR     65  49  56 SW10      29.96R
WILLIMANTIC    MOCLDY    69  43  38 NW5       29.96R

 IN RI

CITY           SKY/WX    TMP DP  RH WIND       PRES   REMARKS
PROVIDENCE     PTCLDY    69  48  47 SE3       29.95R
BLOCK ISLAND   CLEAR     66  46  48 SW9       29.98R
WESTERLY       CLEAR     68  46  45 SW7       29.97R

 IN MA

CITY           SKY/WX    TMP DP  RH WIND       PRES   REMARKS
BOSTON         PTCLDY    64  51  62 E8        29.95R
WORCESTER      PTCLDY    62  44  51 W7        29.97S
WESTFIELD      MOCLDY    67  42  40 W5        29.96S
PROVINCETOWN   CLEAR     66  54  63 S6        29.95S
NANTUCKET      PTCLDY    65  56  72 SW7       29.97R
$$

ANZ330-335-338-340-345-350-353-355-172300-
COASTAL MARINE OBSERVATIONS


STATION/POSITION TIME  SKY/WX   TEMP    WIND        PRES    VSBY  WAVE
                                AIR SEA DIR/SP/G                  HT/PER
                 (UTC)          (F)     (DEG/KT/KT) (MB)    (MI)  (FT/S)
NY HARB ENTRANCE NOT AVBL
4S FIRE IS       NOT AVBL
23SW MTP         2200                                 N/A           4/14
HUDSON CANYON    2200            67 75  350/  6/  8 1015.0          4/12
EXECUTION ROCKS  2200            77 72  100/  4/  6   N/A
WESTERN LI SOUND 2200            70     150/  4/  6   N/A           0
CENTRAL LI SOUND 2200            68 71  240/  8/ 10   N/A           0
EASTERN LI SOUND 2100            68 68  250/  8/ 10   N/A
ROBBINS REEF     2200            71     260/  8/ 10 1013.5
$$


>>>>>>>>>>>>>>>>>>>>>>>>>>>> KEY <<<<<<<<<<<<<<<<<<<<<<<<<<<
>                                                          <
>     SKY/WX - SKY CONDITION/PRESENT WEATHER               <
>     TMP    - TEMPERATURE IN FAHRENHEIT                   <
>     DP     - DEWPOINT IN FAHRENHEIT                      <
>     RH     - RELATIVE HUMIDITY IN PERCENT                <
>     WIND   - DIRECTION AND SPEED IN MPH                  <
>     PRES   - MEAN SEA LEVEL PRESSURE IN INCHES OF HG     <
>     WCI    - WIND CHILL INDEX                            <
>     VSB    - VISIBILITY IN MILES                         <
>     HX     - HEAT INDEX                                  <
>     TC     - TEMPERATURE IN CELSIUS                      <
>     VRB    - VARIABLE WIND DIRECTION                     <
>                                                          <
>>>>>>>>>>>>>>>>>>>>>>>>>>>> KEY <<<<<<<<<<<<<<<<<<<<<<<<<<<




USA.gov is the U.S. government's official web portal to all federal, state and local government web resources and services.